AMC-3 1 24936U 97050A 26132.46703262 -.00000248 00000+0 00000+0 0 9992 2 24936 8.0584 64.4872 0002928 347.2470 274.6399 1.00270978 52078 NSS-11 1 26554U 00059A 26133.14168509 .00000039 00000+0 00000+0 0 9995 2 26554 2.0358 81.7770 0003018 314.6326 61.5043 1.00271480 40948 AMC-6 1 26580U 00067A 26133.11947769 .00000101 00000+0 00000+0 0 9993 2 26580 0.0974 75.3339 0003470 340.1322 83.3933 1.00273280 93545 AMC-15 1 28446U 04041A 26133.08602692 -.00000076 00000+0 00000+0 0 9993 2 28446 0.0196 346.7875 0002300 56.6944 113.2937 1.00271859 78959 NSS-10 1 28526U 05003A 26133.17071291 -.00000237 00000+0 00000+0 0 9995 2 28526 6.3624 70.8694 0002974 341.7930 202.2846 1.00270713 52809 ASTRA 1KR 1 29055U 06012A 26133.15183615 .00000133 00000+0 00000+0 0 9990 2 29055 0.3824 82.9202 0003418 330.6505 251.0395 1.00274429 45341 ASTRA 1L 1 31306U 07016A 26133.18640000 -.00000170 00000+0 00000+0 0 9998 2 31306 1.2308 81.8046 0005021 344.3971 207.3778 1.00270576 44634 ASTRA 4A 1 32299U 07057A 26133.18100398 .00000046 00000+0 00000+0 0 9997 2 32299 0.0136 328.5527 0002351 86.8868 245.4925 1.00273263 51296 ASTRA 1M 1 33436U 08057A 26133.18197962 .00000134 00000+0 00000+0 0 9993 2 33436 0.2051 81.1923 0004435 8.6303 226.0119 1.00272957 45383 NSS-9 1 33749U 09008A 26133.14307177 .00000086 00000+0 00000+0 0 9990 2 33749 1.1706 82.9429 0002120 317.5994 64.9678 1.00273359 63177 SES-7 (PROTOSTAR 2) 1 34941U 09027A 26132.98572308 -.00000332 00000+0 00000+0 0 9992 2 34941 0.0650 81.9308 0000227 83.0016 168.9450 1.00269872 62277 NSS-12 1 36032U 09058A 26133.11811167 .00000084 00000+0 00000+0 0 9997 2 36032 0.1015 73.2383 0004789 312.9322 304.2478 1.00271958 60567 SES-1 1 36516U 10016A 26133.08689360 -.00000101 00000+0 00000+0 0 9995 2 36516 0.0145 311.2674 0002646 103.3500 106.5274 1.00271700 58687 ASTRA 3B 1 36581U 10021A 26133.15183615 .00000151 00000+0 00000+0 0 9997 2 36581 1.3805 83.9475 0004083 331.3996 253.7189 1.00269936 58517 SES-3 1 37748U 11035A 26133.08646028 -.00000088 00000+0 00000+0 0 9993 2 37748 1.2354 83.4288 0002942 329.8499 105.7128 1.00271776 54240 ASTRA 1N 1 37775U 11041A 26133.18189294 .00000133 00000+0 00000+0 0 9998 2 37775 0.0967 48.8229 0005742 21.7772 245.0430 1.00269703 44172 SES-2 1 37809U 11049A 26133.16850564 -.00000183 00000+0 00000+0 0 9993 2 37809 0.0550 90.2527 0002730 320.3981 153.9693 1.00272111 53618 QUETZSAT 1 1 37826U 11054A 26133.16294833 .00000000 00000+0 00000+0 0 9996 2 37826 0.0262 45.2932 0002930 29.2548 138.0405 1.00268828 49523 SES-4 1 38087U 12007A 26133.17374625 -.00000155 00000+0 00000+0 0 9996 2 38087 0.0277 34.7086 0002407 15.6541 221.1246 1.00270489 51877 SES-5 1 38652U 12036A 26133.18100398 .00000047 00000+0 00000+0 0 9990 2 38652 0.0574 301.9092 0001837 107.0035 252.1904 1.00271702 44103 ASTRA 2F 1 38778U 12051A 26132.54203631 .00000162 00000+0 00000+0 0 9997 2 38778 0.0326 253.0626 0000467 333.4951 227.1081 1.00274350 40776 SES-6 1 39172U 13026A 26133.17010623 -.00000248 00000+0 00000+0 0 9992 2 39172 0.0264 303.7947 0002399 136.9950 170.8823 1.00269056 47374 O3B FM5 1 39188U 13031A 26132.45952731 -.00000011 00000+0 00000+0 0 9998 2 39188 0.1016 355.3525 0003093 43.1796 321.4928 5.00116500235256 O3B FM4 1 39189U 13031B 26128.58104725 -.00000018 00000+0 00000+0 0 9997 2 39189 0.0476 345.7937 0005143 58.1283 316.1205 5.00115287235059 O3B FM2 1 39190U 13031C 26132.44453961 -.00000011 00000+0 00000+0 0 9991 2 39190 0.0438 339.1799 0002779 69.0552 311.7915 5.00116001235328 O3B PFM 1 39191U 13031D 26133.05832955 -.00000011 00000+0 00000+0 0 9994 2 39191 0.0696 358.4952 0005380 55.2210 306.3365 5.00116009234910 ASTRA 2E 1 39285U 13056A 26133.18379963 .00000163 00000+0 00000+0 0 9991 2 39285 0.0717 317.7675 0002556 92.7346 275.1340 1.00273451 46060 SES-8 1 39460U 13071A 26132.87815057 -.00000256 00000+0 00000+0 0 9991 2 39460 0.0228 274.8269 0002677 152.9400 214.0236 1.00269508 44071 ASTRA 5B 1 39617U 14011B 26133.18275963 .00000150 00000+0 00000+0 0 9993 2 39617 0.0474 341.9978 0002415 50.6897 287.5669 1.00271261 44316 O3B FM3 1 40079U 14038A 26132.72520553 -.00000011 00000+0 00000+0 0 9990 2 40079 0.0503 354.8220 0001663 119.8087 245.3895 5.00115628211271 O3B FM7 1 40080U 14038B 26132.87120139 -.00000011 00000+0 00000+0 0 9994 2 40080 0.0515 346.5377 0004134 43.5370 329.9521 5.00115589216110 O3B FM6 1 40081U 14038C 26133.09808159 -.00000011 00000+0 00000+0 0 9995 2 40081 0.0503 351.5135 0002634 59.1292 309.3837 5.00115676216079 O3B FM8 1 40082U 14038D 26132.95146764 -.00000011 00000+0 00000+0 0 9997 2 40082 0.0506 350.4099 0002723 64.0371 305.5814 5.00115994216180 O3B FM10 1 40348U 14083A 26126.18234525 -.00000022 00000+0 00000+0 0 9995 2 40348 0.0367 339.0381 0002664 66.0602 314.9247 5.00115348207794 O3B FM11 1 40349U 14083B 26132.99130683 -.00000011 00000+0 00000+0 0 9990 2 40349 0.0572 357.9433 0002843 39.1682 322.9112 5.00115531208153 O3B FM12 1 40350U 14083C 26133.01835015 -.00000011 00000+0 00000+0 0 9997 2 40350 0.0563 357.6642 0002550 51.2200 311.1409 5.00115916208167 O3B FM9 1 40351U 14083D 26131.64594808 -.00000012 00000+0 00000+0 0 9998 2 40351 0.0584 357.6781 0002712 51.4858 310.8622 5.00115961208237 ASTRA 2G 1 40364U 14089A 26133.18371295 .00000163 00000+0 00000+0 0 9998 2 40364 0.0594 29.7639 0004869 19.4111 276.1080 1.00272453 41617 SES-9 1 41380U 16013A 26132.98572308 -.00000332 00000+0 00000+0 0 9990 2 41380 0.0125 343.2401 0002146 86.4613 264.2232 1.00271593 37081 SES-10 1 42432U 17017A 26133.11496932 -.00000260 00000+0 00000+0 0 9998 2 42432 0.0339 51.4158 0002777 7.3916 146.5724 1.00269048 33404 SES-15 1 42709U 17026A 26133.19643919 .00000073 00000+0 00000+0 0 9993 2 42709 0.0215 325.8499 0000556 58.4777 148.2241 1.00270034 7080 SES-11 (ECHOSTAR 105) 1 42967U 17063A 26133.08602692 -.00000076 00000+0 00000+0 0 9995 2 42967 0.0524 71.1614 0002619 354.8605 90.8521 1.00271247 31373 SES-14 1 43175U 18012B 26132.95482315 -.00000266 00000+0 00000+0 0 9996 2 43175 0.0314 82.6094 0000934 328.4477 115.9121 1.00270143 6677 O3B FM15 1 43231U 18024A 26131.31295715 -.00000013 00000+0 00000+0 0 9997 2 43231 0.0512 3.8190 0002634 44.2950 311.9109 5.00115758149171 O3B FM16 1 43232U 18024B 26132.76453747 -.00000011 00000+0 00000+0 0 9997 2 43232 0.0494 8.2850 0002671 40.2683 311.4725 5.00115915149177 O3B FM14 1 43233U 18024C 26133.00521584 -.00000011 00000+0 00000+0 0 9991 2 43233 0.0480 8.5493 0002867 43.9023 307.5775 5.00115694149191 O3B FM13 1 43234U 18024D 26132.87119289 -.00000011 00000+0 00000+0 0 9991 2 43234 0.0508 326.8310 0003237 38.0289 355.1462 5.00115587149292 SES-12 1 43488U 18049A 26132.98303639 .00000000 00000+0 00000+0 0 9992 2 43488 0.0256 35.2488 0001258 262.4498 21.9446 1.00267196 29068 O3B FM20 1 44112U 19020A 26133.03126095 -.00000011 00000+0 00000+0 0 9996 2 44112 0.0529 0.6346 0002537 41.5194 317.8685 5.00115520129818 O3B FM19 1 44113U 19020B 26133.05831797 -.00000011 00000+0 00000+0 0 9991 2 44113 0.0686 344.0680 0004062 54.1510 321.8128 5.00116099129680 O3B FM17 1 44114U 19020C 26132.93855328 -.00000011 00000+0 00000+0 0 9994 2 44114 0.0333 359.4681 0002598 49.9329 310.6246 5.00115456129765 O3B FM18 1 44115U 19020D 26133.08476103 -.00000011 00000+0 00000+0 0 9992 2 44115 0.0533 0.6860 0002753 51.6405 307.7016 5.00115280129891 SES-17 1 49332U 21095A 26133.11496911 -.00000259 00000+0 00000+0 0 9990 2 49332 0.0357 50.5644 0000913 1.3217 153.2972 1.00270051 17507 SES-22 1 52933U 22071A 26133.15061181 .00000117 00000+0 00000+0 0 9999 2 52933 0.0180 283.2543 0001078 108.8440 114.0638 1.00271175 7173 SES-20 1 53960U 22123A 26133.10818346 .00000000 00000+0 00000+0 0 9997 2 53960 0.0197 57.6464 0002239 16.0409 93.0337 1.00272027 13189 SES-21 1 53961U 22123B 26133.10881589 .00000082 00000+0 00000+0 0 9997 2 53961 0.0300 47.1128 0001300 343.9529 107.9856 1.00271819 6866 O3B MPOWER F1 1 54755U 22174A 26133.10909829 -.00000011 00000+0 00000+0 0 9996 2 54755 0.0572 345.5063 0006055 82.0370 196.1590 5.00117071 63602 O3B MPOWER F2 1 54756U 22174B 26132.72948502 -.00000011 00000+0 00000+0 0 9995 2 54756 0.0536 343.6688 0005916 64.9326 311.4525 5.00115270 63676 SES-18 1 55970U 23038A 26133.10818274 -.00000088 00000+0 00000+0 0 9993 2 55970 0.0214 276.9417 0000646 69.7486 180.0429 1.00271316 11756 SES-19 1 55971U 23038B 26133.11982683 .00000101 00000+0 00000+0 0 9996 2 55971 0.0152 301.2326 0001544 107.8706 90.0290 1.00271854 11748 O3B MPOWER F4 1 56367U 23059A 26132.79378310 -.00000011 00000+0 00000+0 0 9999 2 56367 0.0647 0.3296 0007389 61.5125 298.2355 5.00115742 56834 O3B MPOWER F3 1 56368U 23059B 26133.02691867 -.00000011 00000+0 00000+0 0 9992 2 56368 0.0657 359.9062 0006693 53.1343 307.0238 5.00116591 52979 O3B MPOWER F5 1 58346U 23175A 26132.72789309 -.00000011 00000+0 00000+0 0 9994 2 58346 0.0461 12.5389 0004628 52.6110 294.9012 5.00115502 47661 O3B MPOWER F6 1 58347U 23175B 26133.02843159 -.00000011 00000+0 00000+0 0 9993 2 58347 0.0517 5.8672 0004630 38.0172 316.1554 5.00116127 46596 ASTRA 1P (SES-24) 1 60086U 24115A 26131.32821764 .00000131 00000+0 00000+0 0 9992 2 60086 0.0780 41.1036 0001354 283.4312 41.9528 1.00273004 6820 O3B MPOWER F7 1 62362U 24244A 26133.09474470 -.00000011 00000+0 00000+0 0 9996 2 62362 0.0707 355.1058 0006075 54.3045 310.6457 5.00115142 24776 O3B MPOWER F8 1 62363U 24244B 26133.06168201 -.00000011 00000+0 00000+0 0 9996 2 62363 0.0266 316.4645 0006188 85.7163 317.8699 5.00115229 19118 O3B MPOWER F9 1 64866U 25153A 26132.99515603 -.00000011 00000+0 00000+0 0 9999 2 64866 0.0557 14.1402 0005823 61.5672 284.3603 5.00115975 17801 O3B MPOWER F10 1 64867U 25153B 26132.96108985 -.00000011 00000+0 00000+0 0 9998 2 64867 0.0548 9.3301 0002306 263.4311 87.2155 5.00114878 20270